GW1515 Weather Reports


Display with metric or nautical units.
time (UTC)temp
F
wind
direction
speed
MPH
gust
MPH
rain 1hr
in
rain 24hr
in
rain mn
in
humidity
%
barometer
mb
20260903224425 90 195 4.0 7.0 0.00 0.00 0.00 72 1013.7
20260903223921 90 151 4.0 9.0 0.00 0.00 0.00 71 1013.7
20260903223420 90 212 2.0 7.0 0.00 0.00 0.00 71 1014.0
20260903222919 91 191 1.0 7.0 0.00 0.00 0.00 69 1013.8
20260903222415 91 180 3.0 4.0 0.00 0.00 0.00 69 1013.7
20260903221909 92 183 2.0 6.0 0.00 0.00 0.00 68 1013.8
20260903221408 93 165 5.0 8.0 0.00 0.00 0.00 65 1013.8
20260903220906 93 204 6.0 8.0 0.00 0.00 0.00 65 1013.8
20260903220401 93 158 3.0 10.0 0.00 0.00 0.00 63 1013.8
20260903215858 93 188 3.0 9.0 0.00 0.00 0.00 60 1013.6
20260903215355 94 215 4.0 12.0 0.00 0.00 0.00 60 1013.7
20260903214853 94 172 6.0 8.0 0.00 0.00 0.00 61 1013.9
20260903214349 93 139 5.0 7.0 0.00 0.00 0.00 64 1013.7
20260903213848 93 218 4.0 9.0 0.00 0.00 0.00 65 1014.0
20260903213344 93 209 3.0 10.0 0.00 0.00 0.00 64 1013.9
20260903212840 93 249 0.0 4.0 0.00 0.00 0.00 64 1014.0
20260903212336 93 164 4.0 7.0 0.00 0.00 0.00 64 1014.1
20260903211835 92 200 7.0 8.0 0.00 0.00 0.00 65 1013.9
20260903211331 93 168 6.0 7.0 0.00 0.00 0.00 63 1013.9
20260903210827 94 213 0.0 7.0 0.00 0.00 0.00 62 1013.9
20260903210322 92 148 6.0 10.0 0.00 0.00 0.00 62 1013.7
20260903205821 93 106 0.0 8.0 0.00 0.00 0.00 62 1013.8
20260903205316 94 167 3.0 5.0 0.00 0.00 0.00 62 1014.0
20260903204811 94 177 3.0 7.0 0.00 0.00 0.00 61 1014.1
20260903204307 93 148 4.0 5.0 0.00 0.00 0.00 63 1014.0
20260903203803 93 177 3.0 8.0 0.00 0.00 0.00 64 1014.1
20260903203258 93 237 3.0 8.0 0.00 0.00 0.00 62 1014.2
20260903202757 92 141 6.0 9.0 0.00 0.00 0.00 62 1014.1
20260903202254 93 195 8.0 8.0 0.00 0.00 0.00 61 1014.3
20260903201753 92 152 1.0 4.0 0.00 0.00 0.00 63 1014.3
20260903201249 92 142 4.0 9.0 0.00 0.00 0.00 64 1014.2
20260903200747 93 203 2.0 6.0 0.00 0.00 0.00 63 1014.3
20260903200243 91 198 3.0 11.0 0.00 0.00 0.00 64 1014.3
20260903195737 93 97 3.0 4.0 0.00 0.00 0.00 62 1014.5
20260903195234 92 165 3.0 3.0 0.00 0.00 0.00 64 1014.5
20260903194733 93 308 2.0 4.0 0.00 0.00 0.00 62 1014.6
20260903194229 91 144 2.0 7.0 0.00 0.00 0.00 66 1014.6
20260903193724 92 72 2.0 6.0 0.00 0.00 0.00 63 1014.8
20260903193220 91 337 2.0 5.0 0.00 0.00 0.00 66 1014.8
20260903192716 91 152 5.0 6.0 0.00 0.00 0.00 64 1014.9
20260903192211 91 72 1.0 5.0 0.00 0.00 0.00 65 1014.9
20260903191708 90 92 5.0 7.0 0.00 0.00 0.00 65 1014.9
20260903191202 90 235 1.0 9.0 0.00 0.00 0.00 68 1015.1
20260903190656 91 131 3.0 5.0 0.00 0.00 0.00 66 1015.0
20260903190151 90 357 2.0 4.0 0.00 0.00 0.00 68 1014.9
20260903185646 91 344 2.0 6.0 0.00 0.00 0.00 66 1015.0
20260903185141 89 12 3.0 7.0 0.00 0.00 0.00 67 1015.2
20260903184638 89 123 2.0 5.0 0.00 0.00 0.00 68 1015.3
20260903184133 88 328 4.0 7.0 0.00 0.00 0.00 71 1015.3
20260903183632 88 318 4.0 7.0 0.00 0.00 0.00 71 1015.3
20260903183127 88 59 2.0 7.0 0.00 0.00 0.00 69 1015.4
20260903182626 88 346 5.0 9.0 0.00 0.00 0.00 69 1015.4
20260903182122 88 346 6.0 8.0 0.00 0.00 0.00 70 1015.4
20260903181620 88 17 10.0 11.0 0.00 0.00 0.00 69 1015.6
20260903181115 88 14 9.0 11.0 0.00 0.00 0.00 72 1015.2
20260903180611 89 349 5.0 14.0 0.00 0.00 0.00 69 1015.5
20260903180105 89 349 3.0 10.0 0.00 0.00 0.00 70 1015.5
20260903175604 89 350 3.0 8.0 0.00 0.00 0.00 68 1015.7
20260903175103 89 314 3.0 15.0 0.00 0.00 0.00 68 1015.8
20260903174558 88 339 6.0 13.0 0.00 0.00 0.00 68 1015.9
20260903174053 88 9 5.0 15.0 0.00 0.00 0.00 67 1016.0
20260903173548 89 355 4.0 14.0 0.00 0.00 0.00 67 1015.8
20260903173044 89 319 7.0 10.0 0.00 0.00 0.00 67 1016.0
20260903172539 89 355 4.0 13.0 0.00 0.00 0.00 68 1015.9
20260903172034 89 321 5.0 9.0 0.00 0.00 0.00 70 1015.8
20260903171529 88 320 5.0 11.0 0.00 0.00 0.00 71 1015.7
20260903171025 88 0 6.0 13.0 0.00 0.00 0.00 71 1015.8
20260903170523 87 343 6.0 9.0 0.00 0.00 0.00 74 1015.8
20260903170020 88 295 5.0 9.0 0.00 0.00 0.00 70 1015.8
20260903165516 91 319 2.0 7.0 0.00 0.00 0.00 68 1015.5
20260903165012 89 310 5.0 9.0 0.00 0.00 0.00 68 1015.6
20260903164512 90 289 5.0 11.0 0.00 0.00 0.00 67 1015.7
20260903164008 89 283 4.0 8.0 0.00 0.00 0.00 67 1015.6
20260903163503 90 320 3.0 6.0 0.00 0.00 0.00 67 1015.7
20260903162959 91 249 2.0 7.0 0.00 0.00 0.00 64 1015.3
20260903162455 93 285 6.0 8.0 0.00 0.00 0.00 61 1015.3
20260903161950 93 227 5.0 6.0 0.00 0.00 0.00 62 1015.0
20260903161446 93 299 1.0 7.0 0.00 0.00 0.00 65 1015.2
20260903160942 92 289 3.0 6.0 0.00 0.00 0.00 63 1015.1
20260903160440 91 199 2.0 9.0 0.00 0.00 0.00 66 1015.1
20260903155939 90 184 4.0 10.0 0.00 0.00 0.00 68 1015.0
20260903155439 90 212 3.0 9.0 0.00 0.00 0.00 68 1015.2
20260903154935 89 203 4.0 11.0 0.00 0.00 0.00 69 1015.0
20260903154426 92 255 2.0 6.0 0.00 0.00 0.00 65 1015.0
20260903153921 90 238 3.0 6.0 0.00 0.00 0.00 68 1014.9
20260903153416 90 254 2.0 5.0 0.00 0.00 0.00 67 1014.9
20260903152913 88 197 3.0 12.0 0.00 0.00 0.00 69 1015.1
20260903152408 89 233 0.0 8.0 0.00 0.00 0.00 70 1014.8
20260903151909 88 267 2.0 9.0 0.00 0.00 0.00 70 1015.1
20260903151404 88 201 11.0 11.0 0.00 0.00 0.00 69 1015.0
20260903150858 90 225 4.0 5.0 0.00 0.00 0.00 68 1015.0
20260903150353 89 218 3.0 9.0 0.00 0.00 0.00 69 1014.9
20260903145848 88 333 2.0 5.0 0.00 0.00 0.00 70 1014.9
20260903145343 88 204 6.0 13.0 0.00 0.00 0.00 70 1015.0
20260903144842 88 230 2.0 7.0 0.00 0.00 0.00 70 1015.1
20260903144337 87 239 4.0 9.0 0.00 0.00 0.00 71 1015.1
20260903143833 87 212 3.0 8.0 0.00 0.00 0.00 71 1015.2
20260903143330 87 116 1.0 7.0 0.00 0.00 0.00 72 1015.0
20260903142825 87 269 3.0 8.0 0.00 0.00 0.00 71 1015.0
20260903142321 86 274 3.0 6.0 0.00 0.00 0.00 72 1015.0
20260903141816 85 254 5.0 7.0 0.00 0.00 0.00 75 1015.0
20260903141312 85 252 3.0 7.0 0.00 0.00 0.00 75 1014.8
20260903140812 84 203 4.0 7.0 0.00 0.00 0.00 76 1014.9
20260903140307 83 220 7.0 10.0 0.00 0.00 0.00 78 1014.9
20260903135803 83 227 4.0 11.0 0.00 0.00 0.00 78 1014.9
20260903135258 83 203 8.0 10.0 0.00 0.00 0.00 78 1015.1
20260903134757 83 202 5.0 11.0 0.00 0.00 0.00 78 1015.0
20260903134253 82 242 3.0 7.0 0.00 0.00 0.00 79 1015.0
20260903133750 83 172 5.0 7.0 0.00 0.00 0.00 78 1015.0
20260903133246 82 248 4.0 6.0 0.00 0.00 0.00 79 1015.1
20260903132741 81 201 5.0 9.0 0.00 0.00 0.00 80 1015.2
20260903132236 82 213 6.0 7.0 0.00 0.00 0.00 80 1014.9
20260903131731 81 206 9.0 10.0 0.00 0.00 0.00 80 1014.8
20260903131230 81 231 4.0 7.0 0.00 0.00 0.00 81 1014.9
20260903130725 80 205 7.0 10.0 0.00 0.00 0.00 81 1015.0
20260903130220 80 220 2.0 9.0 0.00 0.00 0.00 82 1015.2
20260903125718 80 209 4.0 8.0 0.00 0.00 0.00 82 1015.1
20260903125214 80 209 7.0 7.0 0.00 0.00 0.00 82 1015.1
20260903124713 80 226 4.0 7.0 0.00 0.00 0.00 83 1015.1
20260903124209 79 209 2.0 5.0 0.00 0.00 0.00 83 1015.0
20260903123707 79 246 2.0 5.0 0.00 0.00 0.00 84 1015.4
20260903123206 79 228 4.0 5.0 0.00 0.00 0.00 84 1015.1
20260903122705 79 203 5.0 7.0 0.00 0.00 0.00 84 1015.2
20260903122200 78 197 3.0 4.0 0.00 0.00 0.00 85 1015.4
20260903121659 78 220 0.0 2.0 0.00 0.00 0.00 86 1015.4
20260903121155 77 206 2.0 4.0 0.00 0.00 0.00 87 1015.3
20260903120654 77 192 0.0 4.0 0.00 0.00 0.00 88 1015.4
20260903120149 76 212 3.0 5.0 0.00 0.00 0.00 89 1015.4
20260903115647 76 175 3.0 4.0 0.00 0.00 0.00 89 1015.3
20260903115143 76 163 2.0 4.0 0.00 0.00 0.00 90 1015.1
20260903114638 76 192 2.0 3.0 0.00 0.00 0.00 90 1015.0
20260903114133 76 208 1.0 4.0 0.00 0.00 0.00 90 1015.1
20260903113628 76 183 1.0 3.0 0.00 0.00 0.00 89 1015.2
20260903113124 76 203 4.0 4.0 0.00 0.00 0.00 89 1015.3
20260903112621 76 202 2.0 4.0 0.00 0.00 0.00 89 1015.2
20260903112120 76 184 1.0 3.0 0.00 0.00 0.00 88 1014.8
20260903111619 77 214 1.0 3.0 0.00 0.00 0.00 88 1014.9
20260903111115 77 185 2.0 5.0 0.00 0.00 0.00 87 1015.0
20260903110611 77 218 5.0 5.0 0.00 0.00 0.00 87 1015.0
20260903110106 77 203 2.0 5.0 0.00 0.00 0.00 87 1015.0
20260903105601 77 225 2.0 5.0 0.00 0.00 0.00 87 1014.8
20260903105055 77 208 7.0 8.0 0.00 0.00 0.00 86 1015.2
20260903104550 77 226 2.0 5.0 0.00 0.00 0.00 86 1015.0
20260903104046 78 204 3.0 5.0 0.00 0.00 0.00 86 1015.0
20260903103541 78 224 4.0 7.0 0.00 0.00 0.00 85 1014.9
20260903103038 78 212 4.0 9.0 0.00 0.00 0.00 85 1014.9
20260903102533 78 217 3.0 5.0 0.00 0.00 0.00 86 1015.1
20260903102031 78 216 5.0 7.0 0.00 0.00 0.00 86 1014.9
20260903101526 77 219 3.0 8.0 0.00 0.00 0.00 87 1015.0
20260903101022 77 222 1.0 7.0 0.00 0.00 0.00 87 1015.2
20260903100517 77 227 2.0 6.0 0.00 0.00 0.00 87 1015.1
20260903100015 77 206 3.0 8.0 0.00 0.00 0.00 87 1015.0
20260903095514 78 214 4.0 7.0 0.00 0.00 0.00 87 1014.9
20260903095009 78 210 3.0 6.0 0.00 0.00 0.00 87 1014.8
20260903094508 78 195 3.0 7.0 0.00 0.00 0.00 87 1014.9
20260903094004 78 219 2.0 5.0 0.00 0.00 0.00 87 1014.9
20260903093504 78 208 5.0 9.0 0.00 0.00 0.00 87 1014.8
20260903093000 78 242 2.0 5.0 0.00 0.00 0.00 87 1014.8
20260903092459 78 213 3.0 7.0 0.00 0.00 0.00 87 1014.8
20260903091959 78 182 2.0 5.0 0.00 0.00 0.00 87 1014.7
20260903091457 78 211 2.0 4.0 0.00 0.00 0.00 87 1014.4
20260903090952 78 225 2.0 5.0 0.00 0.00 0.00 87 1014.8
20260903090448 78 213 2.0 6.0 0.00 0.00 0.00 87 1014.7
20260903085946 78 220 2.0 5.0 0.00 0.00 0.00 87 1014.6
20260903085445 78 195 3.0 6.0 0.00 0.00 0.00 88 1014.7
20260903084940 78 201 3.0 5.0 0.00 0.00 0.00 88 1014.9
20260903084438 78 213 3.0 5.0 0.00 0.00 0.00 88 1014.6
20260903083933 78 212 4.0 5.0 0.00 0.00 0.00 88 1014.6
20260903083429 78 206 4.0 8.0 0.00 0.00 0.00 89 1014.5
20260903082928 78 225 1.0 6.0 0.00 0.00 0.00 89 1014.6
20260903082423 78 194 3.0 5.0 0.00 0.00 0.00 90 1014.7
20260903081918 78 196 4.0 6.0 0.00 0.00 0.00 89 1014.7
20260903081414 78 205 3.0 4.0 0.00 0.00 0.00 89 1014.7
20260903080910 78 197 1.0 4.0 0.00 0.00 0.00 89 1014.7
20260903080406 78 205 3.0 6.0 0.00 0.00 0.00 90 1014.9
20260903075901 78 218 3.0 5.0 0.00 0.00 0.00 90 1014.4
20260903075357 78 207 3.0 5.0 0.00 0.00 0.00 91 1014.6
20260903074851 78 212 3.0 5.0 0.00 0.00 0.00 91 1014.9
20260903074345 78 187 2.0 3.0 0.00 0.00 0.00 92 1014.7
20260903073841 78 212 3.0 5.0 0.00 0.00 0.00 92 1014.3
20260903073336 78 182 1.0 5.0 0.00 0.00 0.00 92 1014.7
20260903072832 78 205 2.0 5.0 0.00 0.00 0.00 92 1014.7
20260903072327 78 203 2.0 4.0 0.00 0.00 0.00 92 1014.6
20260903071824 78 195 2.0 4.0 0.00 0.00 0.00 92 1014.7
20260903071320 78 175 2.0 4.0 0.00 0.00 0.00 92 1014.5
20260903070814 78 190 2.0 4.0 0.00 0.00 0.00 92 1014.7
20260903070310 78 205 0.0 2.0 0.00 0.00 0.00 92 1014.5
20260903065804 78 216 1.0 2.0 0.00 0.00 0.00 92 1014.9
20260903065306 78 176 1.0 2.0 0.00 0.00 0.00 92 1015.0
20260903064802 78 185 2.0 3.0 0.00 0.00 0.00 92 1014.7
20260903064253 78 199 0.0 2.0 0.00 0.00 0.00 92 1014.7
20260903063749 78 183 2.0 2.0 0.00 0.00 0.00 92 1014.7
20260903063243 78 188 1.0 2.0 0.00 0.00 0.00 92 1014.8
20260903062740 78 171 2.0 2.0 0.00 0.00 0.00 92 1014.6
20260903062238 78 217 0.0 2.0 0.00 0.00 0.00 91 1014.7
20260903061735 78 191 2.0 2.0 0.00 0.00 0.00 91 1014.7
20260903061233 78 198 0.0 2.0 0.00 0.00 0.00 91 1014.9
20260903060730 79 222 1.0 3.0 0.00 0.00 0.00 91 1014.7
20260903060229 79 212 2.0 4.0 0.00 0.00 0.00 90 1014.7
20260903055727 79 194 0.0 2.0 0.00 0.00 0.00 90 1014.7
20260903055226 79 182 2.0 4.0 0.00 0.00 0.00 90 1014.7
20260903054721 79 231 0.0 3.0 0.00 0.00 0.00 90 1014.9
20260903054216 79 243 2.0 5.0 0.00 0.00 0.00 90 1014.3
20260903053713 79 206 1.0 4.0 0.00 0.00 0.00 90 1015.0
20260903053207 79 212 1.0 4.0 0.00 0.00 0.00 90 1014.7
20260903052703 79 230 3.0 3.0 0.00 0.00 0.00 90 1014.7
20260903052158 79 195 3.0 3.0 0.00 0.00 0.00 90 1014.6
20260903051653 80 188 2.0 3.0 0.00 0.00 0.00 90 1014.5
20260903051149 80 174 1.0 4.0 0.00 0.00 0.00 89 1014.6
20260903050644 80 266 0.0 3.0 0.00 0.00 0.00 89 1014.7
20260903050138 80 190 3.0 4.0 0.00 0.00 0.00 89 1014.4
20260903045637 80 222 2.0 4.0 0.00 0.00 0.00 89 1014.7
20260903045134 80 196 3.0 5.0 0.00 0.00 0.00 89 1014.3
20260903044630 80 210 4.0 5.0 0.00 0.00 0.00 89 1014.6
20260903044125 80 225 2.0 5.0 0.00 0.00 0.00 89 1014.6
20260903043621 80 208 3.0 5.0 0.00 0.00 0.00 89 1014.6
20260903043120 80 216 2.0 4.0 0.00 0.00 0.00 89 1014.6
20260903042615 80 256 2.0 3.0 0.00 0.00 0.00 89 1014.6
20260903042110 80 226 2.0 3.0 0.00 0.00 0.00 89 1014.6
20260903041607 80 199 4.0 5.0 0.00 0.00 0.00 88 1014.6
20260903041102 80 255 2.0 3.0 0.00 0.00 0.00 88 1014.6
20260903040600 81 256 2.0 4.0 0.00 0.00 0.00 88 1014.4
20260903040057 81 195 3.0 4.0 0.00 0.00 0.00 88 1014.4
20260903035553 81 168 0.0 5.0 0.00 0.00 0.00 87 1014.4
20260903035048 81 191 3.0 6.0 0.00 0.00 0.00 87 1014.4
20260903034543 81 196 3.0 5.0 0.00 0.00 0.00 86 1014.2
20260903034038 81 208 3.0 5.0 0.00 0.00 0.00 86 1014.2
20260903033533 82 221 2.0 4.0 0.00 0.00 0.00 85 1014.2
20260903033028 82 176 3.0 6.0 0.00 0.00 0.00 85 1014.2
20260903032523 82 200 2.0 6.0 0.00 0.00 0.00 84 1014.2
20260903032019 82 205 4.0 6.0 0.00 0.00 0.00 84 1014.2
20260903031518 82 188 3.0 6.0 0.00 0.00 0.00 84 1014.3
20260903031014 82 191 3.0 5.0 0.00 0.00 0.00 84 1014.2
20260903030509 82 197 1.0 5.0 0.00 0.00 0.00 84 1014.3
20260903030005 83 208 2.0 6.0 0.00 0.00 0.00 83 1014.4
20260903025455 83 201 4.0 5.0 0.00 0.00 0.00 82 1014.2
20260903024950 83 213 4.0 6.0 0.00 0.00 0.00 82 1014.3
20260903024449 83 217 3.0 5.0 0.00 0.00 0.00 82 1014.6
20260903023944 83 209 3.0 6.0 0.00 0.00 0.00 82 1014.2
20260903023440 83 209 3.0 5.0 0.00 0.00 0.00 82 1014.5
20260903022935 83 223 3.0 8.0 0.00 0.00 0.00 82 1014.4
20260903022434 84 209 3.0 7.0 0.00 0.00 0.00 82 1014.4
20260903021932 84 218 2.0 5.0 0.00 0.00 0.00 82 1014.3
20260903021429 84 200 5.0 8.0 0.00 0.00 0.00 81 1014.4
20260903020929 84 236 2.0 7.0 0.00 0.00 0.00 81 1014.2
20260903020424 84 211 4.0 8.0 0.00 0.00 0.00 81 1014.3
20260903015919 84 201 4.0 7.0 0.00 0.00 0.00 81 1014.2
20260903015415 84 206 4.0 9.0 0.00 0.00 0.00 81 1013.9
20260903014909 84 194 3.0 5.0 0.00 0.00 0.00 81 1013.8
20260903014409 85 196 3.0 7.0 0.00 0.00 0.00 81 1014.1
20260903013904 85 212 3.0 6.0 0.00 0.00 0.00 80 1014.0
20260903013403 85 225 2.0 7.0 0.00 0.00 0.00 80 1013.9
20260903012903 85 209 4.0 6.0 0.00 0.00 0.00 79 1013.9
20260903012356 85 227 3.0 6.0 0.00 0.00 0.00 79 1013.7
20260903011855 85 229 3.0 5.0 0.00 0.00 0.00 79 1014.1
20260903011350 86 240 2.0 6.0 0.00 0.00 0.00 78 1014.0
20260903010846 86 229 2.0 6.0 0.00 0.00 0.00 77 1014.0
20260903010341 86 227 3.0 5.0 0.00 0.00 0.00 77 1014.0
20260903005839 86 210 2.0 7.0 0.00 0.00 0.00 77 1013.8
20260903005335 86 208 3.0 5.0 0.00 0.00 0.00 76 1013.6
20260903004831 87 225 3.0 8.0 0.00 0.00 0.00 75 1013.6
20260903004326 87 210 6.0 7.0 0.00 0.00 0.00 75 1013.6
20260903003821 87 199 4.0 5.0 0.00 0.00 0.00 75 1013.7
20260903003316 87 227 2.0 7.0 0.00 0.00 0.00 75 1013.8
20260903002816 87 225 4.0 5.0 0.00 0.00 0.00 75 1013.7
20260903002315 87 189 4.0 6.0 0.00 0.00 0.00 75 1013.6
20260903001810 87 212 3.0 8.0 0.00 0.00 0.00 74 1013.7
20260903001305 88 192 3.0 5.0 0.00 0.00 0.00 74 1013.7
20260903000800 88 213 2.0 8.0 0.00 0.00 0.00 73 1013.5
20260903000255 88 215 4.0 8.0 0.00 0.00 0.00 73 1013.8
20260902235753 89 213 4.0 7.0 0.00 0.00 0.00 73 1013.8
20260902235248 89 207 3.0 7.0 0.00 0.00 0.00 73 1013.8
20260902234748 89 211 2.0 8.0 0.00 0.00 0.00 73 1013.9
20260902234242 90 178 3.0 7.0 0.00 0.00 0.00 72 1013.8
20260902233742 90 205 2.0 6.0 0.00 0.00 0.00 72 1013.8
20260902233236 90 189 3.0 8.0 0.00 0.00 0.00 71 1014.0
20260902232734 91 213 4.0 7.0 0.00 0.00 0.00 70 1014.1
20260902232229 91 210 3.0 5.0 0.00 0.00 0.00 69 1013.9
20260902231728 91 220 3.0 5.0 0.00 0.00 0.00 67 1014.1
20260902231224 91 217 4.0 6.0 0.00 0.00 0.00 66 1013.7
20260902230719 92 223 5.0 8.0 0.00 0.00 0.00 65 1013.6
20260902230217 92 205 5.0 6.0 0.00 0.00 0.00 65 1014.0
20260902225713 92 224 4.0 7.0 0.00 0.00 0.00 65 1013.9
20260902225213 93 218 2.0 5.0 0.00 0.00 0.00 64 1014.0
20260902224711 93 217 3.0 7.0 0.00 0.00 0.00 64 1014.2